Location: Goettingen
(51.5300°N, 9.9433°E)
Time: 00:46:41
(UTC+02:00)

ISS - Pass Details

Date: 29 May 2017
Orbit: 402 x 408 km, 51.6° (Epoch: 30 May)

Event Time Altitude Azimuth Distance (km) Brightness Sun altitude
Rises 02:25:15 0° 283° (WNW) 2,333 0.0 -15.4°
Reaches altitude 10° 02:27:33 10° 270° (W) 1,468 -1.2 -15.3°
Enters shadow 02:28:36 17° 257° (WSW) 1,128 -1.9 -15.2°
